Location: Diati
(11.8376°N, 2.5966°E)
Time: 17:14:55
(UTC+00:00)

SEDSat Delta rocket - Pass Details

Date: 21 September 2020
Orbit: 533 x 1000 km, 31.4° (Epoch: 19 October)

Event Time Altitude Azimuth Distance (km) Brightness Sun altitude
Rises 19:32:47 0° 300° (WNW) 3,207 7.7 -26.9°
Reaches altitude 10° 19:35:24 10° 300° (WNW) 2,200 6.7 -27.5°
Enters shadow 19:39:29 55° 296° (WNW) 790 3.7 -28.5°
